Location: Centerville
(32.8776°N, 96.6203°W)
Time: 02:24:39
(UTC+00:00)

USA 229 DEB - Pass Details

Date: 17 June 2021
Orbit: 955 x 1257 km, 63.4° (Epoch: 25 July)

Event Time Altitude Azimuth Distance (km) Brightness Sun altitude
Exits shadow 07:55:49 38° 291° (WNW) 1,467 4.3 -29.9°
Maximum altitude 07:56:34 40° 307° (NW) 1,442 4.4 -29.9°
Drops below altitude 10° 08:02:46 10° 16° (NNE) 2,853 6.8 -29.3°
Sets 08:05:41 0° 24° (NNE) 3,856 7.9 -29.1°
